Flag for Barbados Weather past 2 weeks in Bridgetown, Barbados

Now
82 °F

Partly sunny.


Feels Like: 87 °F
Forecast: 80 / 85 °F
Wind: 21 mph from East

Location: Grantley Adams

Current Time: May 24, 2015 at 4:18:06 PM

Latest Report: May 24, 2015 at 4:00 PM


Visibility: N/A

Pressure: 29.98 "Hg

Humidity: 70%

Dew point: 72 °F

Location of BridgetownLocation

Historic Weather in Bridgetown — Graph

°F

Bridgetown temperature yesterday

Maximum temperature yesterday: 86 °F (at 11:00 AM)
Minimum temperature yesterday: 79 °F (at 12:00 AM)
Average temperature yesterday: 82 °F

Past Weeks' High & Low Weather Summary

 TemperatureHumidityPressure
High97 °F (May 10, 6:00 AM)94% (May 16, 9:00 PM)30.07 "Hg (May 16, 9:00 PM)
Low75 °F (May 16, 9:00 PM)44% (May 10, 6:00 AM)29.92 "Hg (May 20, 4:00 PM)
Average82 °F74%30.00 "Hg
* Reported May 9 3:00 PM — May 24 3:00 PM, Bridgetown, Weather by CustomWeather, © 2015

Note: Actual official high and low records may vary slightly from our data, if they occured in-between our weather recording intervals... More about our weather records

Advertising

Bridgetown weather history for previous 24 hours

 ConditionsComfort  
Time TempWeatherWind HumidityBarometerVisibility
3:00 PM
Sun, May 24
86 °FBroken clouds.21 mph62%29.98 "HgN/A
2:00 PM86 °FPartly sunny.21 mph62%29.98 "HgN/A
1:00 PM86 °FBroken clouds.20 mph62%30.01 "HgN/A
12:00 PM86 °FPartly sunny.22 mph59%30.01 "HgN/A
11:00 AM86 °FPassing clouds.23 mph59%30.04 "HgN/A
10:00 AM86 °FPassing clouds.24 mph62%30.04 "HgN/A
9:00 AM82 °FPartly sunny.22 mph74%30.04 "HgN/A
8:00 AM81 °FScattered clouds.21 mph74%30.04 "HgN/A
7:00 AM82 °FBroken clouds.17 mph70%30.01 "Hg6 mi
6:00 AM79 °FScattered clouds.21 mph79%30.01 "Hg6 mi
5:00 AM79 °FPassing clouds.24 mph74%30.01 "Hg6 mi
4:00 AM79 °FPassing clouds.21 mph79%29.98 "Hg6 mi
3:00 AM79 °FPassing clouds.22 mph79%29.98 "Hg6 mi
2:00 AM79 °FPassing clouds.20 mph79%29.98 "Hg6 mi
1:00 AM79 °FPassing clouds.20 mph79%30.01 "Hg6 mi
12:00 AM79 °FPassing clouds.22 mph79%30.01 "Hg6 mi
11:00 PM
Sat, May 23
79 °FPassing clouds.22 mph79%30.04 "Hg6 mi
10:00 PM81 °FPassing clouds.24 mph74%30.04 "Hg6 mi
9:00 PM81 °FPassing clouds.22 mph79%30.04 "Hg6 mi
8:00 PM79 °FPassing clouds.22 mph84%30.04 "Hg6 mi
7:00 PM81 °FPassing clouds.21 mph79%29.98 "Hg6 mi
6:00 PM81 °FPassing clouds.20 mph79%30.01 "Hg6 mi
5:00 PM82 °FPassing clouds.23 mph74%30.01 "Hg6 mi
4:00 PM84 °FPassing clouds.23 mph70%30.01 "Hg6 mi
Weather by CustomWeather, © 2015

See weather overviewHow to use our weather pages